ROMMA est une association bénévole à but non lucratif. Votre soutien est indispensable : ADHERER à ROMMA ou FAIRE un DON

Crêts du Salève - (74, Haute-Savoie)

Salève (1270 m)   Longitude: 6° 10' 28'' E   Latitude: 46° 7' 42'' N Station romma n°73
 

Détail journalier du     <<     >>

Température Precipitation Humidité Vent Dir Rafale Dir. rafale Ensol.
Heure (°C) (mm) (%) (km/h) (km/h) (min)
01:00 7.909216SO24SSO0
02:00 7.90929SO16SO0
03:00 7.80909OSO19OSO0
04:00 7.60886OSO16OSO0
05:00 8.20843OSO11OSO0
06:00 7.80851OSO6OSO0
07:00 7.809003OSO0
08:00 7.90853OSO8OSO0
09:00 6.809714NNO23NNO40
10:00 7.609218NNO23NNO50
11:00 6.909715NNO23N30
12:00 7.109520NNE27NNE0
13:00 7.909318NNE29NNE50
14:00 8.309116N26N60
15:00 8.709010N18NNO60
16:00 8.909015NNO24NNO60
17:00 8.809119NO26NO60
18:00 9.108926NNO32NNO20
19:00 8.409325N31N0
20:00 8.909124N31N0
21:00 9.108721NNE26N0
22:00 9.308120NNE27NNE0
23:00 9.108716NE18NE0
minuit 8.409713NE18NE0

Graphique du 25-10-2019

 

Serveur OMMA